RH
13 14 15 15 15 16 17 18 18 24 25 26 28 26 23 21 20 14 12 13 11 11 11 11 11 11 12 12 14 15 16 18 19 21 22 20 19 21 21 19 17 15 15 14 13 13 14 18 20 18 15 13 14 16 19 20 21 20 20 20 20 19 19 19 19 18 17 17 17 18 19 20 20 20 20 20 21 22 22 23 24 24 25 26 27 27 28 29 29 29 27 25 26 26 26 25 24
13 14 14 14 17 18 19 20 22 29 28 27 27 23 22 19 15 13 15 15 12 11 11 12 12 12 12 13 14 14 15 17 16 17 17 16 17 19 20 19 17 14 14 14 13 13 15 19 18 14 12 12 13 14 16 16 14 14 14 15 15 15 15 15 15 14 14 14 15 15 16 17 17 18 18 18 18 19 20 21 22 22 22 23 26 28 28 28 27 25 22 22 24 25 26 26 26
12 13 13 14 17 18 20 21 23 27 24 24 25 23 20 15 15 17 18 16 13 12 13 14 13 14 14 15 15 15 16 17 16 16 15 15 16 16 17 17 16 15 14 14 14 14 15 17 16 12 11 12 12 13 13 12 11 11 12 13 13 13 13 13 13 13 13 14 14 14 14 15 15 15 16 15 16 17 18 19 19 20 21 21 24 26 26 26 26 24 22 22 23 24 25 26 27
11 13 14 15 17 19 22 23 26 24 21 27 25 24 22 17 19 21 18 16 15 14 14 15 15 15 16 16 15 16 17 17 17 16 15 15 15 15 15 15 15 14 14 14 14 14 15 15 13 12 13 13 13 13 13 12 12 12 12 13 13 13 12 12 13 13 13 13 13 13 14 14 14 14 14 14 15 16 16 16 17 17 17 18 20 21 21 22 22 21 20 20 21 22 23 24 26
11 14 15 16 18 19 22 24 26 23 22 28 23 23 24 20 21 20 18 16 15 14 14 15 15 16 16 16 17 17 17 17 17 16 16 15 15 15 15 14 14 13 13 13 14 14 14 14 13 13 13 14 14 14 14 13 13 12 12 12 13 13 13 13 13 13 13 13 13 13 13 13 13 13 13 13 13 14 13 13 13 13 13 14 15 15 15 15 16 15 15 15 16 18 19 20 22
13 15 16 17 18 17 21 23 23 22 21 24 22 23 22 20 22 20 18 17 16 15 14 15 15 16 16 17 17 17 18 17 17 17 16 15 14 14 15 14 13 13 12 12 13 14 13 14 13 14 14 14 14 14 13 13 12 12 12 12 12 12 12 12 12 12 12 12 12 12 12 12 12 12 12 12 12 11 11 11 11 11 11 11 12 11 11 11 11 11 11 12 12 14 15 16 17
14 16 16 16 17 17 22 24 24 26 23 23 24 22 20 20 21 20 19 18 17 16 16 16 16 16 17 17 17 17 18 18 18 18 17 16 15 14 15 15 14 14 13 12 12 13 13 13 13 14 14 14 14 13 13 12 12 12 12 12 12 12 12 12 12 12 12 12 12 11 11 10 10 10 9 9 9 9 9 9 9 9 9 9 9 9 9 9 9 9 9 9 10 10 10 11 11
15 16 16 17 19 19 22 24 26 28 25 24 24 20 19 20 20 20 21 18 17 17 17 17 17 17 17 17 17 17 18 18 18 19 18 18 17 16 16 15 15 14 13 12 12 12 12 13 13 14 14 14 14 13 13 13 13 13 13 13 13 13 12 12 12 12 12 11 11 10 10 9 9 9 9 8 8 8 8 8 7 7 7 7 7 7 7 7 7 7 7 7 7 7 7 7 7
15 16 16 18 19 19 22 26 26 26 25 23 21 19 18 20 20 21 21 19 18 18 18 18 17 17 17 17 17 17 17 17 18 18 18 18 18 18 17 16 15 15 14 13 13 12 12 13 13 13 14 13 13 13 13 13 13 13 13 13 13 13 13 13 12 12 11 10 10 10 10 10 10 9 9 9 9 8 8 8 8 8 7 7 7 7 7 7 7 7 7 7 7 7 6 6 6
16 16 16 19 20 20 23 25 25 26 25 23 20 19 18 19 20 20 20 19 19 18 18 18 18 17 17 18 18 17 17 17 17 17 18 18 18 18 18 17 17 16 15 14 14 13 13 13 13 13 14 13 13 13 12 13 13 13 14 14 13 13 13 12 12 11 11 11 11 11 11 11 11 11 10 10 9 9 9 9 8 8 8 8 8 8 7 7 7 7 7 7 7 7 7 7 6
17 16 16 20 22 22 24 24 25 25 25 23 20 17 17 19 19 19 19 18 18 17 17 18 18 18 17 18 17 17 17 17 18 18 18 18 18 18 17 18 17 17 17 16 15 14 14 14 14 14 14 14 13 13 13 13 13 13 13 14 13 13 12 12 12 12 12 12 12 12 12 12 12 11 11 10 10 10 9 9 9 9 9 9 8 8 8 8 8 7 7 7 7 7 7 7 7
17 20 20 21 24 23 24 25 24 23 24 23 18 16 17 18 18 17 17 17 17 16 16 17 16 16 17 18 17 17 17 17 18 18 19 19 18 18 18 18 18 18 18 18 16 15 14 14 14 14 14 14 13 13 13 13 13 14 14 13 13 12 12 12 12 12 13 13 13 13 14 14 13 12 12 11 10 10 10 10 9 9 9 9 9 9 9 8 8 8 8 8 8 7 7 7 7
17 21 21 21 26 24 21 24 23 22 22 21 16 15 16 16 16 15 15 15 15 16 16 15 14 15 16 16 15 15 15 16 17 18 19 19 19 19 19 19 18 18 18 19 18 17 16 15 15 15 14 14 14 14 14 14 14 14 14 14 13 12 12 12 13 13 13 14 14 14 14 14 14 13 12 12 11 10 10 10 10 10 10 10 10 10 10 10 9 9 9 9 8 8 8 8 8
15 18 18 19 24 22 19 20 20 19 18 19 16 14 16 14 14 13 12 13 14 14 14 13 13 13 14 14 15 14 14 15 16 17 17 17 18 18 18 19 19 20 20 20 20 19 17 17 16 16 15 14 14 14 13 13 13 14 14 13 13 12 13 13 13 14 14 14 15 15 15 15 15 14 13 12 12 11 10 10 10 10 10 10 10 10 11 11 11 11 10 10 10 9 9 9 8
15 16 19 19 21 20 18 19 19 18 18 19 16 14 16 14 14 13 12 12 12 11 11 12 12 12 13 13 13 13 13 14 15 16 16 17 17 17 17 18 18 18 19 20 21 21 19 18 18 17 16 16 15 14 14 14 14 13 14 13 13 13 13 13 14 14 14 15 15 16 16 16 15 15 14 13 13 12 11 11 10 11 11 11 11 11 11 12 12 12 12 11 11 11 10 10 10
15 16 19 19 20 20 18 20 20 18 20 20 16 16 16 15 15 14 11 10 10 10 11 12 12 12 12 11 11 11 11 12 13 15 16 16 16 16 17 17 17 17 17 18 19 20 20 19 19 18 18 17 16 15 15 15 15 14 14 14 13 13 13 14 14 14 15 16 16 17 17 17 16 15 14 14 13 13 12 12 11 11 11 11 12 12 12 12 12 12 12 12 12 12 12 11 11
15 16 18 19 21 20 19 20 19 17 19 19 16 16 16 16 14 12 11 10 10 11 11 11 12 12 11 12 12 11 11 11 12 13 14 15 15 15 15 15 15 16 16 16 18 19 19 18 18 18 18 17 17 16 16 16 15 15 15 15 14 13 14 14 14 15 15 16 17 17 17 17 16 16 15 15 14 13 13 12 12 12 13 13 13 13 13 13 13 13 12 12 12 12 12 12 12
16 18 18 17 20 20 19 20 17 15 16 16 15 15 15 14 13 11 10 10 10 10 10 11 11 11 11 12 12 12 12 11 11 11 12 13 13 13 13 13 13 13 13 14 15 16 18 18 18 17 17 17 17 17 17 16 16 16 15 16 15 14 14 14 15 15 16 16 17 17 18 18 17 16 16 15 15 14 14 14 13 13 14 14 14 14 14 14 13 13 13 13 13 13 13 13 13
17 21 19 18 20 17 16 16 14 13 13 13 12 12 12 12 11 10 11 11 10 10 10 10 10 11 11 12 12 12 12 12 11 11 11 11 12 12 12 11 11 11 11 12 13 13 14 15 16 16 16 16 16 16 16 16 16 16 16 16 16 15 15 15 15 15 15 16 16 17 18 18 17 17 16 16 15 15 15 15 14 14 15 15 15 15 15 15 15 14 14 14 14 14 14 14 14
16 19 19 19 20 16 14 13 13 12 11 11 11 11 11 11 10 10 11 11 11 11 10 10 10 10 11 11 11 11 11 12 12 12 12 11 12 12 12 12 11 11 11 11 12 12 12 13 14 15 16 16 15 15 15 16 16 16 16 16 16 15 14 14 15 15 15 16 16 17 17 18 18 18 17 16 16 16 16 16 16 15 15 15 15 16 15 15 15 15 15 15 15 15 15 15 14
15 16 18 18 17 15 13 12 12 12 11 11 11 11 11 11 11 10 10 11 11 11 10 10 9 9 9 10 10 10 11 11 11 11 12 12 12 12 12 12 12 12 12 11 11 11 12 12 13 15 15 16 16 15 15 15 15 16 16 16 16 16 15 14 15 15 15 16 16 17 17 18 18 18 18 17 16 16 17 17 17 17 16 16 16 16 16 15 15 15 15 16 16 16 16 15 15
15 15 16 16 15 14 12 12 12 12 12 11 11 11 11 11 10 10 11 11 10 10 10 10 9 9 9 9 9 10 10 10 11 11 11 11 11 11 11 11 11 11 11 11 11 11 11 12 13 13 14 15 16 16 16 15 15 16 16 17 16 16 15 14 15 15 15 16 16 17 17 18 19 19 19 18 18 17 17 17 17 17 17 17 17 16 16 16 16 16 16 16 16 16 16 16 15
15 15 14 14 14 13 12 12 12 12 12 11 12 11 11 11 11 10 10 10 10 9 10 9 9 10 9 9 9 9 10 10 10 10 10 10 10 10 10 10 10 10 10 10 10 10 10 11 12 12 13 14 15 16 16 16 16 15 16 17 17 16 16 15 15 15 16 17 17 18 18 19 19 20 21 20 19 18 19 19 18 18 18 18 17 17 17 17 17 16 16 16 16 16 16 16 16
15 15 14 13 14 13 12 12 12 12 12 12 12 11 11 11 11 10 10 10 10 10 10 10 10 10 9 10 9 9 9 9 10 10 10 10 10 9 10 10 9 9 10 10 10 10 10 10 11 12 13 14 15 15 16 16 16 16 15 16 18 18 17 16 15 15 16 17 18 18 19 19 20 20 21 22 20 20 20 20 20 19 19 19 19 19 18 18 18 18 17 17 17 17 17 17 17
16 16 14 13 13 13 12 12 12 12 12 12 12 12 12 12 11 11 10 10 11 11 10 10 10 10 10 10 10 10 10 10 10 10 10 10 10 10 10 10 10 10 10 10 10 10 10 11 11 12 12 13 15 15 16 16 16 17 16 16 17 17 17 17 16 15 15 16 17 18 18 19 19 20 21 21 21 20 21 20 20 20 20 20 20 19 19 19 19 18 18 18 18 17 17 17 17
15 14 13 12 12 12 12 11 11 12 12 12 12 12 12 12 12 11 10 11 12 11 11 11 11 10 10 10 10 10 10 10 10 11 11 10 11 11 11 11 11 11 11 11 11 11 11 11 11 11 12 13 14 15 16 16 16 17 17 17 17 17 17 18 17 16 16 16 16 16 17 17 18 19 20 20 20 20 20 20 20 20 21 21 20 20 19 19 19 18 18 18 18 18 18 18 18
13 13 12 12 12 12 11 11 12 13 13 12 13 13 12 13 13 11 10 12 12 12 11 11 10 10 10 10 11 11 11 11 11 11 11 11 11 11 11 11 11 11 11 11 11 11 11 11 11 11 12 13 13 15 15 16 16 17 18 18 18 17 17 17 17 17 17 17 17 16 16 17 17 18 19 20 20 20 20 20 20 20 21 21 21 21 20 19 19 19 19 19 18 18 18 18 19
13 13 13 12 13 12 11 12 12 13 13 13 13 13 13 14 13 11 10 11 12 12 11 11 11 11 10 11 11 11 11 11 11 11 11 11 11 11 11 11 11 11 11 11 12 12 12 12 12 12 12 13 13 13 15 16 17 17 18 18 18 18 17 17 17 17 17 17 18 18 17 17 18 18 19 19 19 19 19 20 20 21 21 21 22 21 21 20 20 20 20 20 19 19 19 19 19
13 14 15 14 14 13 12 12 13 13 13 12 14 14 14 13 13 11 11 12 12 13 12 12 12 11 11 11 10 10 10 10 10 10 10 10 10 10 10 10 11 11 11 11 12 12 12 12 12 12 13 13 12 13 14 15 16 17 18 19 19 19 18 18 17 17 17 17 18 18 18 18 18 19 19 19 19 18 19 19 20 21 22 22 22 22 21 21 21 21 21 21 21 20 20 20 20
14 15 16 15 15 15 12 12 14 13 14 13 14 16 13 12 12 11 11 12 13 13 12 11 11 11 11 11 10 10 10 10 10 9 9 9 9 10 10 10 11 11 11 11 11 12 12 12 12 13 13 13 13 13 13 14 15 17 18 19 19 18 18 18 18 18 17 17 18 18 18 18 19 19 20 20 19 19 19 19 20 20 22 22 23 23 23 22 22 22 22 22 21 21 21 21 21
15 17 17 17 18 16 12 12 14 13 14 13 14 18 13 10 11 11 12 13 13 13 12 11 11 11 11 11 10 10 9 9 9 9 9 9 9 9 10 10 10 10 11 11 11 11 12 12 12 13 13 13 13 13 13 13 15 16 18 19 19 18 18 18 18 19 18 18 18 18 19 20 20 20 20 20 19 20 20 20 21 21 22 22 23 23 23 23 23 23 23 23 22 22 22 22 22
19 18 20 21 20 17 13 13 14 13 14 14 15 18 15 11 10 11 12 13 13 13 12 11 11 10 11 10 10 9 9 9 9 9 9 9 9 9 9 10 10 11 11 11 11 11 11 12 12 13 13 13 13 13 13 14 15 16 18 19 19 19 18 17 18 19 19 19 19 20 20 21 21 20 20 20 20 21 21 21 22 22 22 23 23 23 24 24 24 24 24 23 23 23 23 23 23
24 23 22 22 22 20 17 14 14 14 15 15 15 16 15 12 10 11 12 12 12 12 12 11 11 10 10 10 10 9 9 9 9 9 10 10 9 9 9 10 10 11 11 11 11 11 11 12 13 13 13 13 13 13 13 14 16 16 18 19 19 18 17 17 17 18 20 21 21 21 21 21 21 21 20 20 21 21 21 22 23 23 24 23 23 23 24 24 24 24 24 23 23 23 23 24 24
27 28 27 26 24 22 20 17 15 15 15 16 16 16 14 11 11 11 11 12 12 12 12 11 11 10 10 11 10 10 9 9 9 10 10 10 10 9 9 10 10 11 11 12 12 12 12 12 12 13 13 13 13 13 14 14 15 16 18 19 19 18 17 17 16 18 20 21 22 22 22 21 21 21 21 21 21 21 22 23 24 24 24 24 24 24 24 24 24 24 24 24 24 23 24 24 24
27 29 30 29 27 25 23 20 17 16 16 16 16 16 14 12 12 12 11 12 12 12 12 11 11 11 10 11 10 10 10 10 9 10 11 11 11 10 10 10 10 11 11 12 12 13 13 12 12 12 13 13 13 14 15 15 16 16 17 18 18 17 16 17 16 18 21 22 22 22 22 22 21 21 21 21 21 21 23 24 25 25 25 25 25 24 24 24 24 24 24 24 24 24 24 24 25
26 28 29 30 28 25 23 21 19 19 18 17 17 15 14 14 13 12 12 12 12 12 12 11 11 11 11 11 10 11 11 11 10 10 11 12 12 12 12 11 11 11 11 12 13 14 14 14 14 13 14 14 14 15 16 16 17 17 17 18 17 17 17 17 17 19 21 22 23 23 23 22 21 21 21 21 21 21 23 24 25 25 26 26 25 26 25 25 24 24 24 25 24 24 24 24 24
26 27 29 30 28 25 24 24 23 22 20 17 17 16 14 14 13 13 13 12 12 12 12 12 11 11 11 11 11 11 12 11 11 11 11 12 13 13 13 12 12 12 12 12 13 14 15 16 16 15 15 15 16 17 17 17 17 17 17 17 18 18 18 19 19 21 22 23 23 23 23 22 20 20 21 21 21 22 23 24 25 26 26 26 26 26 26 26 25 25 25 26 25 25 25 25 25
27 28 29 29 29 28 26 27 26 25 22 18 17 18 15 15 14 14 14 13 12 12 12 12 11 11 11 11 11 11 12 12 12 11 11 12 13 13 13 12 12 12 12 12 13 13 15 16 17 17 17 18 18 18 18 17 16 16 16 17 18 19 20 20 21 23 23 23 23 23 22 21 20 20 21 21 22 23 24 25 26 27 27 26 26 26 26 26 26 26 26 26 26 26 25 25 25
30 31 31 31 32 30 27 28 29 28 26 22 21 20 17 16 16 14 14 13 12 12 12 11 11 12 11 11 11 11 12 12 12 11 10 12 13 13 13 13 12 12 12 12 13 14 15 16 18 19 19 20 20 19 18 17 16 16 16 18 19 20 21 21 23 23 23 22 22 21 21 20 20 21 22 23 24 25 26 27 27 27 27 27 26 26 26 26 26 26 25 26 26 27 27 26 25
33 33 33 33 33 32 29 28 30 29 27 26 25 23 20 18 16 15 15 14 13 13 12 12 12 12 12 12 12 12 12 13 12 11 11 12 13 13 13 13 13 13 13 13 14 15 16 16 18 20 21 20 20 20 19 17 16 17 17 19 20 21 21 22 22 23 22 21 21 21 21 21 21 22 23 25 26 27 27 27 27 27 27 26 26 26 26 26 26 26 26 26 26 27 28 27 26
33 35 35 34 33 33 30 28 29 28 26 27 26 24 22 20 19 17 17 16 16 15 15 14 13 13 13 13 13 13 13 13 13 12 12 13 13 13 13 14 14 14 14 14 15 17 17 17 19 21 21 20 20 20 19 18 17 18 18 20 20 21 21 22 22 22 21 21 21 22 22 22 22 23 25 26 27 28 27 27 27 27 27 26 26 26 26 26 26 26 26 26 26 27 28 27 26
31 34 35 33 32 32 31 31 31 29 29 28 29 28 24 21 22 21 20 19 19 19 18 17 16 15 15 15 14 14 13 14 14 14 13 14 13 14 14 15 15 15 15 15 16 17 18 18 17 19 19 19 20 19 20 19 18 19 19 20 20 21 21 21 21 22 22 22 22 22 23 23 24 25 26 27 27 28 28 28 28 27 27 26 26 26 26 26 26 26 26 26 27 28 28 29 27
30 34 36 33 32 33 35 35 34 33 33 32 32 32 29 25 24 23 22 22 21 20 20 19 18 17 16 16 14 14 14 15 16 16 15 15 15 15 15 15 15 15 15 16 16 18 18 17 16 17 18 18 19 19 20 20 19 19 19 20 21 21 21 21 22 22 22 22 22 23 25 26 26 26 27 27 27 28 28 29 29 28 28 27 28 27 27 26 27 27 27 27 28 28 29 29 28
31 34 37 35 35 38 39 39 39 38 37 37 37 36 35 30 26 25 23 22 22 20 20 19 18 17 16 16 15 15 15 16 17 18 17 18 17 16 16 16 16 16 16 17 17 18 18 18 18 18 18 19 19 19 20 20 20 20 20 21 21 21 21 22 22 22 22 22 24 26 27 27 27 27 28 28 27 27 28 28 29 28 29 29 29 28 28 27 27 27 28 28 28 29 29 29 28
32 37 40 40 41 43 44 42 44 45 41 39 38 37 39 32 25 26 24 22 22 20 19 18 17 17 16 17 17 16 17 17 18 18 18 20 20 20 19 18 18 18 18 18 18 18 18 19 19 19 20 20 20 20 20 21 21 21 21 21 21 22 22 22 22 22 23 24 26 28 28 27 28 29 29 28 27 27 27 28 29 29 29 29 30 29 29 29 28 29 29 29 29 28 29 29 28
36 41 43 48 52 51 50 47 46 48 45 40 39 38 39 31 22 25 24 22 22 19 19 19 17 17 17 17 18 17 18 17 18 18 19 20 21 21 21 20 20 20 19 20 19 19 19 19 20 20 21 21 22 22 22 22 22 22 22 22 22 23 23 23 23 24 25 26 27 28 28 29 29 30 30 30 29 28 27 28 29 30 30 30 30 31 30 30 30 30 30 30 29 29 29 29 28
40 43 44 52 57 56 59 56 50 49 44 39 39 38 38 32 24 25 25 24 24 21 19 20 19 19 18 18 18 17 18 18 18 18 19 20 21 21 21 20 21 20 20 20 20 20 20 19 20 21 22 23 24 25 25 24 24 23 24 23 24 24 24 24 24 26 26 27 27 28 29 29 30 31 31 31 30 29 29 29 30 30 31 31 31 31 31 31 31 31 31 31 31 30 30 30 29
41 44 47 52 56 57 60 57 51 50 44 38 37 36 35 31 24 24 24 24 25 23 22 21 21 20 19 19 19 18 18 19 20 20 19 20 21 20 20 20 20 20 19 20 19 20 21 20 21 22 24 25 25 26 26 26 26 25 26 26 26 26 25 26 26 26 27 27 29 30 30 31 31 31 31 31 32 32 31 31 31 31 32 32 32 31 30 31 31 32 32 32 32 31 31 31 29
43 46 48 54 59 57 55 56 55 53 43 37 37 36 32 28 23 23 23 22 24 24 24 23 22 22 21 20 19 18 19 20 21 22 21 21 21 20 20 20 20 19 18 18 18 19 21 21 21 22 23 25 26 28 28 28 28 28 27 27 27 28 28 27 27 27 28 28 30 31 31 32 32 32 32 31 32 33 33 33 32 33 33 33 32 32 31 31 32 32 32 32 32 31 31 31 30
47 45 47 56 60 58 58 59 57 51 42 37 39 38 34 28 24 23 21 21 24 24 24 23 23 24 23 22 21 20 21 22 22 22 22 21 21 21 21 21 21 20 19 19 20 21 23 23 23 23 24 26 27 28 30 30 30 30 29 28 28 29 29 28 27 28 29 29 30 31 32 32 33 33 33 33 32 33 34 34 34 34 34 34 34 34 34 33 34 34 33 33 32 32 32 32 31
51 46 48 53 54 57 59 56 51 46 43 42 42 41 37 29 25 25 24 24 24 24 25 25 25 26 26 25 24 23 23 23 24 24 24 23 22 22 22 22 22 21 22 23 24 24 25 26 26 26 27 28 29 29 29 30 30 30 30 30 30 30 29 29 28 28 30 31 32 33 34 33 33 33 34 34 34 33 34 35 35 35 36 36 36 36 36 36 36 36 36 35 34 34 34 34 33
53 50 51 49 47 52 54 52 49 46 47 47 42 41 38 29 25 26 28 27 26 27 27 27 27 27 27 27 27 27 27 26 26 26 25 25 25 24 24 23 22 22 24 26 26 26 26 27 27 27 28 29 29 29 29 29 30 30 31 32 32 31 30 30 30 30 31 32 33 34 35 35 34 34 34 34 34 34 35 35 35 36 37 37 38 39 39 39 39 39 38 38 37 37 37 37 36
54 53 52 48 48 51 53 54 51 48 52 47 38 38 37 31 29 28 29 30 29 29 29 29 29 28 27 27 28 29 29 28 28 27 26 26 26 26 26 25 24 23 24 26 27 27 27 28 29 30 31 30 30 30 30 30 29 29 30 31 32 32 31 30 30 31 32 32 33 34 35 36 36 36 35 35 35 35 35 35 36 36 37 39 39 40 41 41 41 41 40 40 39 39 39 39 37
56 56 52 47 49 52 55 60 56 53 57 50 39 37 36 35 36 32 32 33 31 30 30 30 30 30 29 29 30 30 29 29 28 26 25 25 26 27 27 27 26 25 26 27 29 29 30 31 32 33 33 33 33 33 32 32 31 31 31 32 32 33 32 32 32 32 32 32 33 33 35 36 37 37 37 36 36 36 35 36 36 36 37 38 40 41 41 41 41 42 41 41 40 40 41 41 39
57 60 57 54 56 54 55 61 61 58 60 57 48 43 37 37 38 34 32 34 32 31 31 30 31 32 31 30 30 31 30 29 27 26 25 25 27 28 28 28 28 28 29 30 32 32 31 32 33 34 36 36 36 35 35 35 34 34 35 34 34 34 34 35 35 34 33 33 33 33 35 37 38 38 39 38 38 37 36 36 36 37 38 39 40 41 41 42 42 42 42 42 42 42 43 43 41
56 59 61 61 60 58 57 60 61 59 60 60 56 52 44 39 39 36 33 33 33 32 32 33 34 34 33 31 30 31 30 29 29 29 28 28 30 31 30 30 31 33 33 33 35 36 34 34 34 35 37 39 39 38 38 38 38 37 37 37 37 37 36 36 37 36 35 35 35 36 37 38 40 40 40 40 39 38 38 37 38 38 39 40 41 42 43 43 43 44 44 44 44 45 46 46 44
59 61 62 61 60 60 61 62 60 59 61 62 61 61 53 41 37 36 34 34 35 33 33 35 37 36 35 35 34 33 32 33 35 36 34 32 32 33 32 32 35 38 38 37 39 40 40 41 40 40 40 39 40 40 40 40 40 40 39 39 40 39 38 38 37 37 37 37 38 39 40 41 42 42 42 41 40 39 39 39 39 40 41 41 42 44 45 46 46 47 47 47 47 47 48 48 46
63 65 64 63 60 61 66 66 61 59 62 63 63 67 61 44 35 33 33 34 35 35 36 38 38 38 38 40 41 40 39 40 41 40 39 38 36 35 35 35 38 42 42 41 42 42 42 43 44 45 44 40 39 40 40 41 41 41 41 41 41 41 40 39 38 38 38 39 41 43 43 42 42 43 43 42 41 41 41 41 41 42 42 43 44 45 46 48 49 49 49 49 49 49 50 49 47